Погода в Пьетра-Лигуре

Италия     44°09′15″N   8°17′46″E
темп.,
°C
ветер,
м/с
пор.,
м/с
влажн.,
%
обл.,
%
осадки,
мм/ч
давл.,
гПа
погр.,
м
24 октября, вс
вс2423:00+9сз46780 0.0 1026161
02:00+9сз59740 0.0 1026263
05:00+11ссз5107264 0.0 1025677
08:00+10сз5107442 0.0 1026654
11:00+14ссз695953 0.0 1026969
14:00+15ссз695271 0.0 1025962
17:00+14ссз695710 0.0 1024841
20:00+10ссз510749 0.0 1025474
25 октября, пн
пн2523:00+10сз51075100 0.0 1025435
02:00+9сз5974100 0.0 1024345
05:00+9сз5973100 0.0 1023322
08:00+9сз4770100 0.0 1023249
11:00+13ссз4654100 0.0 1022480
14:00+16ссз463973 0.0 1020849
17:00+15ссз354422 0.0 1019784
20:00+9сз34765 0.0 102271
26 октября, вт
вт2623:00+8сз34782 0.0 102264
02:00+8сз34795 0.0 102268
05:00+7сз34804 0.0 102164
08:00+6сз337922 0.0 102163
11:00+14ссз23450 0.0 1020497
14:00+17ссв13330 0.0 1018943
17:00+15ссв13410 0.0 1018516
20:00+9сз34670 0.0 102164
27 октября, ср
ср2723:00+8сз45710 0.0 1022100
02:00+8сз46730 0.0 1022126
05:00+7сз46760 0.0 1023127
08:00+7сз46803 0.0 1024120
11:00+13ссз46433 0.0 1024587
14:00+16ссз46330 0.0 1023892
17:00+14ссз46400 0.0 1022637
20:00+8сз45610 0.0 102595
28 октября, чт
чт2823:00+8сз47600 0.0 1025170
02:00+7сз47600 0.0 1025208
05:00+7сз45620 0.0 1024115
08:00+7сз45625 0.0 1024101
11:00+13ссз464312 0.0 1023534
14:00+16ссз463699 0.0 1022822
17:00+14ссз3642100 0.0 1021674
20:00+9сз346573 0.0 102371